Regional Weather Roundup
Issued by NWS Jackson, KY

Home | Current Version | Previous Version | Graphics & Text | Print | Product List | Glossary On
Versions: 1 2 3 4 5 6 7 8 9 10 11 12 13 14 15 16 17 18 19 20 21 22 23 24 25 26 27 28 29 30 31 32 33 34 35 36 37 38 39 40 41 42 43 44 45 46 47 48 49 50
656
ASUS43 KJKL 281810
RWRJKL

EAST KENTUCKY HOURLY WEATHER ROUNDUP
NATIONAL WEATHER SERVICE JACKSON KY
200 PM EDT SUN MAY 28 2017

NOTE: "FAIR" INDICATES FEW OR NO CLOUDS BELOW 12,000 FEET WITH
NO SIGNIFICANT WEATHER AND/OR OBSTRUCTIONS TO VISIBILITY.

* THESE REPORTS ARE NOT UNDER NWS QUALITY CONTROL AND MAY NOT
  REPORT WEATHER SUCH AS PRECIPITATION AND FOG.

KYZ079-080-083-085-087-088-110-112-115-119-120-281900
...EASTERN KENTUCKY...

CITY           SKY/WX    TMP DP  RH WIND       PRES   REMARKS
JACKSON        CLOUDY    69  62  78 VRB5      29.88R
6HR MIN TEMP:  63; 6HR MAX TEMP:  71; 6HR PCP: TRACE;

LONDON         CLOUDY    72  60  66 W17       29.89S
6HR MIN TEMP:  64; 6HR MAX TEMP:  73; 6HR PCP: TRACE;

SOMERSET*      CLOUDY    68  59  73 W10G18    29.90S
MONTICELLO*    PTSUNNY   72  62  71 W14       29.90F
6HR MIN TEMP:  64; 6HR MAX TEMP:  72; 6HR PCP: TRACE;

WILLIAMSBURG*  CLOUDY    73  64  73 SW6       29.90R
MIDDLESBORO*   PTSUNNY   74  61  63 S8        29.90F
6HR MIN TEMP:  63; 6HR MAX TEMP:  75;

HARLAN APT*    CLOUDY    73  59  60 SW7       29.91R
PIKE CO APT*   CLOUDY    69  62  78 SW5       29.88R
BIG SANDY APT* CLOUDY    71  62  72 SW7       29.86F
6HR MIN TEMP:  65; 6HR MAX TEMP:  75;

MOREHEAD APT*  CLOUDY    70  61  73 SW12      29.86S
$$

KYZ035-036-041-042-044-050-067-078-099-281900
...CENTRAL KENTUCKY...

CITY           SKY/WX    TMP DP  RH WIND       PRES   REMARKS
MT STERLING*   CLOUDY    70  63  78 SW7       29.85F
FLEMING/MASON* CLOUDY    73  64  72 SW10G17   29.83S
DANVILLE*      PTSUNNY   75  63  64 SW12G20   29.87S
LEXINGTON      MOSUNNY   76  61  59 W15G21    29.83F
6HR MIN TEMP:  66; 6HR MAX TEMP:  76; 6HR PCP: TRACE;

FRANKFORT      MOSUNNY   74  61  63 W10       29.81F
6HR MIN TEMP:  65; 6HR MAX TEMP:  75;

LOUISVILLE     CLOUDY    74  63  68 SW10      29.82S
6HR MIN TEMP:  66; 6HR MAX TEMP:  76;

LEBANON*       MOCLDY    73  63  68 SW9       29.86R
GLASGOW*       CLOUDY    71  62  71 W9        29.89R
BOWLING GREEN  CLOUDY    74  65  73 W10       29.88R
6HR MIN TEMP:  65; 6HR MAX TEMP:  75;

$$

KYZ091>093-OHZ055-061-077-WVZ005-015-034-035-042-281900
...SOUTHERN OHIO/WEST VIRGINIA...

CITY           SKY/WX    TMP DP  RH WIND       PRES   REMARKS
COVINGTON      CLOUDY    72  62  71 W12G22    29.80F
COLUMBUS       PTSUNNY   76  65  68 S15       29.76S
DAYTON         CLOUDY    76  62  62 SW16      29.77S
WILMINGTON     CLOUDY    73  64  73 SW15      29.77S
HUNTINGTON     CLOUDY    73  63  70 SW6       29.81F
CHARLESTON     CLOUDY    76  61  59 SW8       29.82F
PINEVILLE*     CLOUDY    76  64  66 MISG      29.91F
BECKLEY        MOSUNNY   71  59  65 SW7       29.90F
BLUEFIELD      PTSUNNY   69  57  65 W8        29.92F
LOGAN CO APT*  MOCLDY    73  63  68 CALM      29.85F
$$

VAZ002-007-008-TNZ017-027-036-066-071-281900
...SOUTHWEST VIRGINIA/EAST TENNESSEE...

CITY           SKY/WX    TMP DP  RH WIND       PRES   REMARKS
WISE*          CLOUDY    70  59  68 SW9G16    29.95S
JONESVILLE*      N/A     73  63  68 SW12      29.92F
ABINGDON*      CLOUDY    71  63  76 W10G18    29.93F
BRISTOL        CLOUDY    74  62  66 W10       29.91F
MORRISTOWN*    MOCLDY    73  63  68 W12G17    29.92R
SEVIERVILLE*   CLEAR     73  64  73 W14       29.91R
KNOXVILLE      CLOUDY    73  64  73 W10       29.92R
LAFOLLETTE*    CLEAR     75  61  60 S8G17     29.91F
OAK RIDGE      CLOUDY    74  62  66 SW6       29.92R
CROSSVILLE     CLOUDY    71  59  65 W10       29.95F
NASHVILLE      PTSUNNY   78  62  57 W15G22    29.91R
$$

...KEY TO REMARKS...
VSB - VISIBILITY IN MILES
WCI - WIND CHILL INDEX
HX  - HEAT INDEX

$$




USA.gov is the U.S. government's official web portal to all federal, state and local government web resources and services.